Regional Weather Roundup
Issued by NWS

Home | Current Version | Previous Version | Graphics & Text | Print | Product List | Glossary On
Versions: 1 2 3 4 5 6 7 8 9 10 11 12 13 14 15 16 17 18 19 20 21 22 23 24 25 26 27 28
000
ASUS45 KGTF 050410
RWRMT
MONTANA HOURLY WEATHER ROUNDUP
NATIONAL WEATHER SERVICE GREAT FALLS MT
1000 PM MDT MON MAY 04 2015

NOTE: "FAIR" INDICATES FEW OR NO CLOUDS BELOW 12000 FEET WITH NO
SIGNIFICANT WEATHER AND/OR OBSTRUCTIONS TO VISIBILITY.

MTZ001>007-043-050500-
WEST OF THE DIVIDE

CITY           SKY/WX    TMP DP  RH WIND       PRES   REMARKS
KALISPELL      CLEAR     49  33  54 W5        29.75R
MISSOULA       MOCLDY    62  33  33 SW3       29.78R
BUTTE          CLOUDY    54  27  35 SW7       29.89R
DEER LODGE       N/A     57  28  33 W5        29.88S
EUREKA           N/A     54  28  37 CALM        N/A
HAMILTON         N/A     61  32  33 S6        29.79R
LIBBY            N/A     55  30  38 SE7       29.75R
$$

MTZ008-052>055-050500-
SOUTHWEST MONTANA

CITY           SKY/WX    TMP DP  RH WIND       PRES   REMARKS
BOZEMAN        CLEAR     53  37  54 SE5       29.84R
DILLON         CLOUDY    63  30  28 S14       29.87R
$$

MTZ009-010-012-014-046-048-049-054-050500-
EAST SLOPES AND CENTRAL MONTANA

CITY           SKY/WX    TMP DP  RH WIND       PRES   REMARKS
CUT BANK       CLEAR     51  21  30 NW9       29.80R
GREAT FALLS    CLEAR     58  18  21 NW6       29.78R
MALMSTROM AFB  CLEAR     54  27  34 S9        29.79R
HELENA         PTCLDY    64  30  27 W8        29.80S
$$

MTZ011-013-016-021-045-047-050-051-050500-
NORTH CENTRAL MONTANA

CITY           SKY/WX    TMP DP  RH WIND       PRES   REMARKS
HAVRE          CLEAR     58  41  53 SE6       29.75R
LEWISTOWN      CLEAR     55  40  56 SE9       29.87R
CHINOOK          N/A     66  36  32 SE7       29.77S
FORT BENTON      N/A     66  37  34 SE8       29.76S
$$

MTZ017>020-022>042-056>058-061-062-050500-
EASTERN PLAINS

CITY           SKY/WX    TMP DP  RH WIND       PRES   REMARKS
BAKER          CLEAR     47  32  56 SE12      30.03S
BILLINGS       CLEAR     59  39  47 CALM      29.87R
GLASGOW        CLEAR     60  38  43 SE20      29.88R
JORDAN           N/A     59  40  49 SE15      29.88
LIVINGSTON     CLEAR     57  40  52 SE9       29.87R
MILES CITY     CLEAR     56  36  47 SE16G28   29.93R
SIDNEY         CLEAR     54  34  47 SE12      30.02F
WOLF POINT     CLEAR     59  35  40 E9        29.94S
BIG TIMBER       N/A     57  43  58 CALM      29.89R
FORSYTH          N/A     61  39  44 E10       29.89R
PLENTYWOOD       N/A     55  37  50 SE17      30.00S
POPLAR           N/A     55  34  44 E13       29.97S
$$

REGIONAL REPORTS...DAKOTAS

CITY           SKY/WX    TMP DP  RH WIND       PRES   REMARKS
WILLISTON      CLEAR     57  38  48 S9        30.05R
MINOT          MOCLDY    58  29  33 S9        30.09R
DICKINSON      CLEAR     46  32  58 SE14      30.07F
BEACH          MOCLDY    46  32  57 SE16      30.04F
CROSBY         FAIR      55  37  50 S13G22    30.04S
WATFORD CITY   FAIR      54  36  50 S16       30.05S
BISMARCK       MOCLDY    49  30  48 SE6       30.13S
GRAND FORKS    CLEAR     55  26  32 SE7       30.16S
FARGO          CLEAR     50  24  36 SE3       30.18R
BUFFALO SD       N/A     47  31  53 SE12      30.01S
RAPID CITY     MOCLDY    50  38  63 SW7       30.11S
$$

REGIONAL REPORTS...WYOMING/IDAHO/WASHINGTON

CITY           SKY/WX    TMP DP  RH WIND       PRES   REMARKS
GILLETTE       MOCLDY    47  34  60 S18G25    30.02S
SHERIDAN       PTCLDY    58  43  57 S18G25    29.91F
BUFFALO WY     PTCLDY    52  41  66 SE13      30.02S
CODY           PTCLDY    55  43  62 S5        29.94R
YELLOWSTONE LA   N/A     40  33  76 NW3       30.07R
IDAHO FALLS    CLOUDY    63  39  41 NW13G23   29.91R
SALMON           N/A     63  34  34 SE5       29.81R
BOISE          LGT RAIN  75  35  23 W17G23    29.76R
SPOKANE        PTCLDY    65  27  23 S12       29.75R
$$

REGIONAL REPORTS...ALBERTA

CITY           SKY/WX    TMP DP  RH WIND       PRES   REMARKS
EDMONTON       CLEAR     50  32  50 E17G23    29.84S
CALGARY        PTCLDY    55  25  30 E18G25    29.71F
LETHBRIDGE     PTCLDY    50  27  40 S20       29.74S
MEDICINE HAT   CLEAR     63  34  34 NE6       29.73S
$$

REGIONAL REPORTS...SASKATCHEWAN

CITY           SKY/WX    TMP DP  RH WIND       PRES   REMARKS
SWIFT CURRENT  LGT RAIN  57  46  67 SE14G22   29.81R
REGINA         MOCLDY    57  34  41 SE16      29.92S
SASKATOON      PTCLDY    52  32  46 E15       29.92F
$$



USA.gov is the U.S. government's official web portal to all federal, state and local government web resources and services.